STARLINK-4278 (53182 NORAD) Tracking and Keplerian Element Data

This shows tracking and keplerian element data for the satellite.

Feedback or suggestion? Click here.




ElementValue
Catalog53182
NameSTARLINK-4278
Epoch Orbit1193
Epoch Day270.25001157
Epoch Year2022
RAAN52.183
Inclination53.2145
Eccentricity0.0003715
Argument of Perigee6.0588
Mean Anonmoly110.5122
Mean Motion15.73167096
Decay Rate0.00108793
L11 53182U 22083BC 22270.25001157 .00108793 00000+0 77046-3 0 9992
L22 53182 53.2145 52.1830 0003715 6.0588 110.5122 15.73167096 11934

Live tracking and technical data element details for STARLINK-4278 (NORAD 53182). STARLINK-4278 can be tracked NOW for your location showing map with azimuth and elevation plus other details from your city location.

Track the satellite on the map from your city or location and see movement details for azimuth, elevation, latitude, longitude, range, height, and movement on the map or in text.







IsCatalogInMostPopularTable: catalog: 53182, numindb: 7
Update: records affected: 1



GetName: 53182 STARLINK-4278

Hit Count: updated at: Thu, 29 Sep 2022 10:50:58 GMT